OpenBCM V1.08-5-g2f4a (Linux)

Packet Radio Mailbox

IZ3LSV

[San Dona' di P. JN]

 Login: GUEST





  
I0OJJ  > KEPS     02.08.25 02:40l 343 Lines 16344 Bytes #134 (0) @ AMSAT
BID : ORB25214.1
Read: GUEST
Subj: 2Line Orbital Elements 25214.AMSAT
Path: IZ3LSV<IK6IHL<IK7NXU<HB9ON<HB9ON<PI8ZTM<VK2IO<VK2RZ<IR0AAB<I0OJJ
Sent: 250802/0025z @:I0OJJ.ITA.EU [Rome] obcm1.08-10-g596e
From: I0OJJ @ I0OJJ.ITA.EU (Gustavo)
To:   KEPS @ AMSAT
X-Info: This message was generated automatically


QST de W1STR

AMSAT Orbital Elements for Amateur Satellites in TLE Format
From Orbital Analysis Office
New England Sci-Tech STEM Education Center
Natick, MA August 02, 2025
To all radio amateurs


These element sets describe the orbits of various satellites 
in use by the amateur radio community. For details see:
www.amsat.org/keplerian-elements-formats/

A daily update of element sets is available at:
www.amsat.org/tle/daily-bulletin.txt
or without bulletin text:
www.amsat.org/tle/dailytle.txt


AO-07
1 07530U 74089B   25213.49595449 -.00000041  00000-0  30862-4 0  9994
2 07530 101.9949 218.3254 0012405  23.0364 145.1469 12.53690491320459
UO-11
1 14781U 84021B   25213.87505103  .00001346  00000-0  14697-3 0  9992
2 14781  97.7581 179.2045 0008467 150.5187 209.6509 14.89515011230573
AO-27
1 22825U 93061C   25213.15508192  .00000094  00000-0  52941-4 0  9990
2 22825  98.7334 274.9646 0007656 325.3946  34.6738 14.30813753661233
FO-29
1 24278U 96046B   25213.54198617 -.00000025  00000-0  11592-4 0  9992
2 24278  98.5681 100.4522 0349505 205.2362 153.1342 13.53250963430184
NOAA-15
1 25338U 98030A   25213.82022881  .00000188  00000-0  94892-4 0  9998
2 25338  98.5338 237.6657 0009882 196.9060 163.1793 14.27005364415993
GO-32
1 25397U 98043D   25213.86986480  .00000084  00000-0  56589-4 0  9991
2 25397  98.9743 194.1114 0002299  71.0736 289.0691 14.24326238406094
ISS
1 25544U 98067A   25213.83869246  .00010761  00000-0  19438-3 0  9992
2 25544  51.6345  80.8045 0001792 141.9722 218.1394 15.50276709522241
NO-44
1 26931U 01043C   25213.52653742  .00000184  00000-0  99822-4 0  9993
2 26931  67.0526 350.9420 0006482 276.6548  83.3816 14.31756432244689
SO-50
1 27607U 02058C   25213.87302922  .00001033  00000-0  14518-3 0  9992
2 27607  64.5530  36.0129 0061973 322.5263  37.1529 14.81752614217339
CO-55
1 27844U 03031E   25213.51820470  .00000345  00000-0  16899-3 0  9990
2 27844  98.6769 221.1103 0010397  39.9106 320.2835 14.24030945146174
CO-57
1 27848U 03031J   25213.49143183  .00000282  00000-0  14347-3 0  9996
2 27848  98.6794 221.0493 0010546  55.8892 304.3286 14.23360781145896
RS-22
1 27939U 03042A   25213.82201847  .00001125  00000-0  18560-3 0  9996
2 27939  98.3327  24.5754 0011033 195.3167 276.1615 14.72459159168663
CO-58
1 28895U 05043F   25213.36802642  .00001784  00000-0  29768-3 0  9993
2 28895  98.2565 358.4013 0015393 136.4627 223.7797 14.71163761 54703
CO-65
1 32785U 08021C   25213.34190627  .00006422  00000-0  45800-3 0  9995
2 32785  97.7880 184.9205 0010532  41.5038 318.6986 15.04867559937018
CO-66
1 32791U 08021J   25213.46136322  .00013216  00000-0  61986-3 0  9999
2 32791  97.7309 194.7297 0003415  23.2209 336.9178 15.19796980938528
RS-30
1 32953U 08025A   25213.84000575  .00000040  00000-0  22058-3 0  9993
2 32953  82.5025 194.0567 0018042 291.5140  68.4016 12.43166753780148
NOAA-19
1 33591U 09005A   25213.79287954  .00000115  00000-0  85371-4 0  9994
2 33591  98.9944 278.7890 0013314 209.5746 150.4674 14.13396997849620
SRMSAT
1 37841U 11058D   25213.35359781  .00000411  00000-0  79554-4 0  9992
2 37841  19.9703 195.1903 0011529 285.6980 224.4019 14.11448810712574
ZACUBE-1
1 39417U 13066B   25213.86381741  .00003831  00000-0  33156-3 0  9997
2 39417  97.7819 170.6192 0042572 232.9962 126.7361 14.97070510632883
Delfi-N3xt
1 39428U 13066N   25213.32569981  .00005892  00000-0  59380-3 0  9990
2 39428  97.8309 130.4008 0083695 185.5573 174.4724 14.88906509626929
GOMX-1
1 39430U 13066Q   25213.79807163  .00001989  00000-0  31276-3 0  9998
2 39430  97.6791  69.1867 0132794  22.7270 337.9740 14.67826181623214
LO-74
1 39440U 13066AA  25213.39156611  .00005268  00000-0  52909-3 0  9990
2 39440  97.8504 157.6006 0061787   7.4864 352.7261 14.90282509629304
AO-73
1 39444U 13066AE  25213.48709294  .00006236  00000-0  46069-3 0  9991
2 39444  97.7865 175.6342 0040669 204.1817 155.7500 15.02932891631535
DTUSAT-2
1 40030U 14033W   25213.35534774  .00007531  00000-0  48221-3 0  9995
2 40030  98.0582 187.7580 0007739 234.9959 125.0542 15.08851884604359
EO-80
1 40032U 14033Y   25213.50552009  .00006268  00000-0  40123-3 0  9994
2 40032  98.0468 187.4971 0008874 169.4529 190.6886 15.08927868604356
LILACSAT-2
1 40908U 15049K   25213.84538483  .00011478  00000-0  28950-3 0  9994
2 40908  97.5052 235.5117 0007750 340.0724  20.0218 15.39998874546421
IO-86
1 40931U 15052B   25151.18580175  .00001241  00000-0  78118-4 0  9996
2 40931   6.0006  24.0987 0012733 338.8432  21.1169 14.78805930523047
Horyu-4
1 41340U 16012D   25213.17888954  .00025695  00000-0  64210-3 0  9998
2 41340  30.9954 137.6970 0007522 254.2321 105.7496 15.38882941520897
Lapan A3
1 41603U 16040E   25213.86815645  .00003453  00000-0  12048-3 0  9994
2 41603  97.1388 216.3975 0012834  81.5756 278.6939 15.30176308505935
CAS-2T
1 41847U 16066G   25213.22197942  .00001002  00000-0  15079-3 0  9990
2 41847  98.4178 287.2195 0345954  19.4337 341.9674 14.43627891458617
CAS-4B
1 42759U 17034B   25213.76466055  .00109637  00000-0  84044-3 0  9993
2 42759  43.0056   3.2975 0023143 303.4366  56.4289 15.70657135450947
CAS-4A
1 42761U 17034D   25213.80980150  .00101930  00000-0  72130-3 0  9999
2 42761  43.0095 359.4809 0024085 308.3662  51.5043 15.72534854450986
TechnoSat
1 42829U 17042E   25213.47932554  .00004616  00000-0  35535-3 0  9992
2 42829  97.3935  19.6562 0017649 100.5596 259.7619 15.02004221438668
AO-91
1 43017U 17073E   25213.18059681  .00009973  00000-0  50288-3 0  9998
2 43017  97.5180  82.6251 0169925 347.8840  11.8321 15.05549154417127
S-Net D
1 43186U 18014G   25213.30897508  .00004803  00000-0  28120-3 0  9990
2 43186  97.5562 115.6775 0010380  51.9042 308.3123 15.12252556410349
S-Net B
1 43187U 18014H   25213.71208336  .00004912  00000-0  28757-3 0  9998
2 43187  97.5567 116.0510 0010956  46.0832 314.1301 15.12237771410400
S-Net A
1 43188U 18014J   25213.30918262  .00004828  00000-0  28258-3 0  9992
2 43188  97.5576 115.8092 0010885  48.0398 312.1758 15.12258032410343
S-Net C
1 43189U 18014K   25213.31760768  .00005046  00000-0  29531-3 0  9998
2 43189  97.5593 115.8408 0012192  40.4325 319.7810 15.12230085408890
Ten-Koh
1 43677U 18084G   25213.47145915  .00002601  00000-0  20994-3 0  9993
2 43677  98.0847  27.8204 0009015  90.9588 269.2668 15.00781589368170
PO-101
1 43678U 18084H   25213.81045133  .00001762  00000-0  15251-3 0  9990
2 43678  98.1063  31.9814 0008665 106.4056 253.8119 14.98530579368355
QO-100
1 43700U 18090A   25212.91010132  .00000151  00000-0  00000-0 0  9998
2 43700   0.0149  83.9657 0001182  47.4305 171.7816  1.00273540 24462
MinXSS-2
1 43758U 18099A   25213.16803690  .00016446  00000-0  61939-3 0  9992
2 43758  97.4984 279.4147 0010334 336.4317  23.6447 15.27127685364993
AO-95
1 43770U 18099N   25213.13270651  .00009527  00000-0  47042-3 0  9999
2 43770  97.4877 270.6542 0011027  37.8016 322.3990 15.18039813364524
RANGE-A
1 43773U 18099R   25213.83812973  .00003981  00000-0  25191-3 0  9997
2 43773  97.4446 260.6987 0011389  17.9328 342.2301 15.09503692364255
MOVE-II
1 43780U 18099Y   25194.80194206  .15913345  26116-5  37118-3 0  9995
2 43780  97.4526 273.8800 0018736 270.1080  89.8075 16.44566529363241
SNUSat 2
1 43782U 18099AA  25213.57981320  .00007532  00000-0  40325-3 0  9993
2 43782  97.4559 267.4110 0010890 336.8989  23.1753 15.15262959364526
SnugLite
1 43784U 18099AC  25213.08539840  .00010109  00000-0  49479-3 0  9990
2 43784  97.4375 266.5974 0002719   1.4099 358.7142 15.18375183364605
ITASat 1
1 43786U 18099AE  25213.57958670  .00006657  00000-0  37448-3 0  9998
2 43786  97.4529 266.7616 0014589  29.5462 330.6591 15.13500856364470
EAGLET 1
1 43790U 18099AJ  25213.59086392  .00003820  00000-0  24233-3 0  9995
2 43790  97.4728 266.5496 0012124  15.8509 344.3097 15.09433072364061
ESEO
1 43792U 18099AL  25213.53983392  .00002438  00000-0  18636-3 0  9991
2 43792  97.4444 259.0442 0011859 346.1049  13.9849 15.02781762363775
CSIM
1 43793U 18099AM  25213.77018719  .00949669  46196-3  15886-2 0  9998
2 43793  97.4711 296.4892 0011000 275.7986  84.2039 16.02867923366064
JO-97
1 43803U 18099AX  25213.13816068  .00011884  00000-0  52530-3 0  9991
2 43803  97.4627 271.7701 0006085 330.4815  29.6077 15.21842799364768
Suomi 100
1 43804U 18099AY  25213.10803851  .00010784  00000-0  51410-3 0  9999
2 43804  97.4691 270.8811 0011031 330.7858  29.2758 15.19229475364678
ISAT
1 43879U 18111D   25213.57531423  .00023547  00000-0  77002-3 0  9996
2 43879  97.5905 129.1924 0008702  27.6142 332.5560 15.31679761361803
UWE-4
1 43880U 18111E   25213.30840554  .00017786  00000-0  66706-3 0  9994
2 43880  97.5849 127.0138 0012454  35.3834 324.8229 15.27227536361674
Sparrow
1 43881U 18111F   25213.57809560  .00024542  00000-0  76942-3 0  9997
2 43881  97.6059 132.2857 0008453  64.8482 295.3635 15.33026119359902
Prox-1
1 44339U 19036A   25212.99209354  .00012209  00000-0  15113-2 0  9992
2 44339  23.9967  77.2845 0007550 310.7209  49.2632 14.80851396325790
SONATE
1 44400U 19038Q   25185.47540524  .09032085  27445-5  31847-3 0  9995
2 44400  97.6609 216.4776 0012462 246.7970 113.2018 16.43248376333575
Taurus 1
1 44530U 19059C   25213.82381181  .00006271  00000-0  11434-2 0  9996
2 44530  98.6120 355.7777 0008795 223.8142 136.2364 14.66368233311749
Duchifat 3
1 44854U 19089C   25213.81617393  .00056488  00000-0  94331-3 0  9997
2 44854  36.9421  15.6760 0005668  16.3145 343.7795 15.50878433311201
TO-108
1 44881U 19093C   25213.83550042  .00000896  00000-0  10929-3 0  9994
2 44881  97.7902 288.3685 0015006  60.1913 300.0792 14.85692708303987
